Total_Precipitation_Accumulation
2.23 2.37 3.65 3.79 3.30 3.12 3.16 3.00 2.96 2.91 2.77 2.70 2.56 2.43 2.27 2.08 1.88 1.75 1.58 1.49 1.44 1.49 1.49 1.48 1.52 1.44 1.31 1.21 1.23 1.39 1.41 1.63 1.74 1.71 1.76 1.84 1.87 2.03 2.16 2.41 2.71 2.87 2.72
1.88 2.29 3.56 3.68 3.18 2.87 2.90 2.91 2.98 2.94 2.76 2.58 2.42 2.38 2.14 2.02 1.90 1.75 1.57 1.49 1.42 1.50 1.60 1.66 1.60 1.44 1.28 1.21 1.27 1.42 1.43 1.54 1.70 1.76 2.01 2.21 2.21 2.24 2.10 2.28 2.59 2.91 2.80
1.74 2.00 2.72 3.30 3.08 2.87 2.79 2.72 2.85 2.90 2.73 2.54 2.40 2.39 2.04 1.89 1.86 1.78 1.70 1.65 1.61 1.62 1.61 1.68 1.72 1.58 1.39 1.30 1.38 1.50 1.56 1.62 1.61 1.70 2.28 3.11 2.55 2.33 2.46 2.60 2.81 2.76 2.76
1.65 1.75 2.14 2.97 2.89 2.78 2.94 2.85 2.85 2.88 2.82 2.65 2.44 2.20 1.88 1.84 1.86 1.90 1.95 1.88 1.76 1.76 1.83 1.83 1.81 1.68 1.55 1.46 1.49 1.55 1.71 1.75 1.78 1.80 2.26 2.96 2.87 2.59 2.57 2.76 2.95 2.67 2.64
1.56 1.69 2.28 2.82 2.67 2.60 2.70 2.79 2.84 2.91 2.88 2.79 2.51 2.08 1.86 1.79 1.79 1.85 1.97 1.95 1.87 1.83 1.84 1.83 1.72 1.61 1.58 1.50 1.53 1.57 1.62 1.66 1.87 1.71 2.04 2.71 3.21 2.86 2.43 2.60 2.74 2.62 2.58
1.45 1.57 2.01 2.56 2.53 2.43 2.43 2.67 2.60 2.57 2.58 2.54 2.34 2.07 1.87 1.87 1.78 1.85 1.93 1.88 1.82 1.70 1.65 1.67 1.62 1.53 1.51 1.48 1.49 1.52 1.59 1.68 1.68 1.78 2.15 2.74 3.13 2.83 2.31 2.38 2.62 2.77 2.75
1.42 1.39 1.63 2.13 2.23 2.23 2.28 2.39 2.43 2.31 2.29 2.16 2.04 1.95 1.82 1.85 1.85 1.82 1.73 1.57 1.53 1.53 1.54 1.68 1.66 1.48 1.47 1.50 1.48 1.48 1.60 1.57 1.50 1.80 2.13 2.62 2.70 2.57 2.20 2.31 2.69 2.96 2.93
1.39 1.29 1.39 1.76 1.90 1.86 1.91 2.18 2.26 2.03 2.10 2.04 1.91 1.85 1.80 1.77 1.75 1.66 1.47 1.41 1.43 1.53 1.60 1.60 1.54 1.44 1.46 1.48 1.51 1.58 1.70 1.41 1.20 1.43 1.82 2.43 2.85 2.68 2.25 2.23 2.55 2.79 2.98
1.47 1.35 1.30 1.31 1.42 1.63 1.86 1.90 1.86 1.90 2.00 1.97 1.78 1.74 1.71 1.54 1.44 1.42 1.44 1.51 1.46 1.51 1.52 1.45 1.40 1.42 1.50 1.56 1.59 1.60 1.56 1.31 1.19 1.50 1.66 2.34 2.93 2.80 2.34 2.22 2.38 2.51 2.74
1.33 1.25 1.15 1.06 1.12 1.24 1.47 1.68 1.72 1.74 1.77 1.75 1.70 1.75 1.73 1.50 1.34 1.38 1.40 1.61 1.60 1.53 1.57 1.51 1.42 1.40 1.46 1.57 1.51 1.37 1.21 1.02 1.04 1.27 1.84 2.32 3.12 3.03 2.54 2.31 2.25 2.20 2.25
1.19 1.12 1.06 0.97 1.01 1.10 1.18 1.31 1.47 1.48 1.48 1.39 1.29 1.37 1.30 1.13 1.07 1.19 1.24 1.59 1.72 1.79 1.74 1.65 1.58 1.50 1.39 1.39 1.35 1.15 0.95 0.91 1.06 1.24 1.77 2.55 3.06 3.00 2.56 2.29 2.24 2.04 1.92
1.25 1.12 1.01 1.00 0.99 1.00 1.00 1.26 1.45 1.22 1.14 1.03 1.02 1.01 1.03 1.09 1.15 1.00 1.14 1.47 1.48 1.54 1.59 1.57 1.53 1.34 1.10 0.96 0.98 0.94 0.85 0.91 0.97 1.11 1.72 2.64 2.89 2.86 2.53 2.21 2.06 1.92 1.81
1.18 1.08 0.96 1.00 0.96 0.89 0.98 1.13 1.32 1.35 1.32 1.25 1.08 1.07 1.02 0.96 0.92 0.83 0.84 1.00 1.05 1.13 1.12 1.20 1.21 1.02 0.86 0.84 0.85 0.83 0.82 0.87 0.96 1.11 1.76 2.68 3.00 2.93 2.71 2.35 2.12 1.92 1.89
1.09 1.15 0.98 0.95 0.91 0.82 0.74 0.80 0.95 1.00 1.01 1.01 1.03 0.97 0.97 1.04 1.02 0.91 0.91 0.98 1.03 1.01 1.12 1.15 1.17 1.04 0.89 0.77 0.77 0.82 0.86 0.86 1.00 1.27 1.72 2.46 2.98 3.11 3.06 2.67 2.41 2.18 2.04
1.18 1.12 1.06 1.01 0.97 0.97 0.91 0.83 0.78 0.80 0.86 0.90 0.97 0.90 0.85 0.93 1.04 1.04 0.99 1.07 1.07 1.05 1.11 1.09 0.96 0.96 0.95 0.85 0.83 0.83 0.88 0.91 1.08 1.20 1.47 2.00 2.67 3.33 3.51 3.24 2.76 2.43 2.33
1.15 1.20 1.17 1.08 1.06 0.97 0.93 0.94 0.95 0.88 0.89 0.92 0.98 0.88 0.79 0.82 0.87 1.00 1.02 1.10 1.04 1.07 1.14 1.03 1.00 1.03 1.03 0.92 0.87 0.88 0.87 0.92 1.01 1.14 1.29 1.61 2.02 2.67 3.35 3.54 3.19 2.80 2.54
1.06 1.18 1.25 1.22 1.20 1.06 0.99 1.01 1.01 0.97 0.88 0.90 0.93 0.83 0.77 0.83 0.86 0.97 1.05 1.07 1.05 1.07 1.07 1.10 1.12 1.09 1.01 0.94 0.96 0.93 0.88 0.89 1.05 1.16 1.23 1.42 1.49 1.64 2.34 3.13 3.44 3.29 3.02
1.09 1.10 1.16 1.14 1.18 1.19 1.12 1.06 1.04 0.97 0.94 0.96 0.95 0.88 0.83 0.83 0.88 1.11 1.17 1.06 1.11 1.20 1.24 1.28 1.23 1.17 1.10 1.10 1.14 1.10 1.01 1.03 1.18 1.25 1.21 1.20 1.26 1.20 1.45 1.96 2.46 2.85 3.17
1.07 1.04 1.08 1.09 1.28 1.31 1.24 1.25 1.20 1.13 1.15 1.17 1.16 1.10 1.00 0.95 1.07 1.28 1.35 1.22 1.19 1.35 1.35 1.24 1.29 1.36 1.34 1.38 1.28 1.30 1.27 1.27 1.25 1.18 1.16 1.22 1.27 1.28 1.36 1.32 1.56 1.93 2.61
0.92 0.92 0.99 1.03 1.17 1.32 1.44 1.52 1.53 1.46 1.42 1.51 1.56 1.49 1.27 1.21 1.25 1.45 1.59 1.52 1.45 1.59 1.63 1.52 1.64 1.73 1.66 1.72 1.57 1.48 1.42 1.39 1.33 1.31 1.28 1.33 1.45 1.37 1.44 1.39 1.37 1.24 1.63
0.75 0.73 0.83 1.00 1.17 1.35 1.50 1.65 1.85 1.97 2.01 1.95 1.90 1.92 1.80 1.59 1.66 1.80 1.79 2.00 2.05 2.03 2.07 2.05 2.23 2.29 2.04 1.91 2.28 2.22 1.79 1.45 1.31 1.39 1.48 1.52 1.63 1.66 1.65 1.62 1.57 1.35 1.27
0.65 0.68 0.77 0.94 1.20 1.41 1.61 1.82 1.99 2.35 2.48 2.41 2.39 2.26 2.16 2.03 2.03 1.95 2.04 2.29 2.32 2.43 2.53 2.40 2.59 2.73 2.42 2.14 2.62 3.12 2.70 2.20 1.53 1.27 1.38 1.55 1.74 1.77 1.71 1.59 1.60 1.58 1.51
0.49 0.58 0.70 0.83 1.05 1.37 1.69 1.96 2.16 2.37 2.62 2.69 2.53 2.45 2.41 2.44 2.47 2.35 2.30 2.45 2.48 2.56 2.77 2.80 2.76 2.93 2.91 2.56 2.52 3.13 3.15 2.75 2.26 1.67 1.48 1.54 1.74 1.86 1.90 1.86 1.70 1.71 1.63
0.52 0.60 0.72 0.82 0.97 1.18 1.45 1.83 2.16 2.42 2.73 2.73 2.58 2.53 2.56 2.61 2.63 2.56 2.52 2.60 2.62 2.61 2.70 2.75 2.76 3.06 3.32 3.10 2.79 2.55 2.52 2.56 2.60 2.23 1.81 1.64 1.76 1.86 2.00 1.92 1.95 2.00 1.96
0.57 0.63 0.77 0.89 1.02 1.18 1.44 1.77 2.14 2.38 2.59 2.71 2.65 2.51 2.43 2.50 2.42 2.30 2.40 2.56 2.58 2.60 2.60 2.76 2.89 3.18 3.24 3.18 3.07 2.92 2.72 2.54 2.16 2.25 2.22 1.98 1.91 1.82 1.92 2.08 2.16 2.21 2.15
0.64 0.74 0.87 1.00 1.16 1.29 1.43 1.58 1.75 1.97 2.27 2.40 2.50 2.48 2.46 2.47 2.33 2.18 2.24 2.32 2.41 2.47 2.44 2.49 2.68 2.87 3.13 3.27 3.20 3.02 3.00 2.92 2.70 2.49 2.18 2.06 2.18 2.05 1.92 1.92 2.01 2.09 2.25